Regional Weather Roundup
Issued by NWS State College, PA

Home | Current Version | Previous Version | Graphics & Text | Print | Product List | Glossary On
Versions: 1 2 3 4 5 6 7 8 9 10 11 12 13 14 15 16 17 18 19 20 21 22 23 24 25 26 27 28 29 30 31 32 33 34 35 36 37 38 39 40 41 42 43 44 45 46 47 48 49 50
000
ASUS41 KCTP 272303
RWRCTP

REGIONAL WEATHER ROUNDUP
NATIONAL WEATHER SERVICE STATE COLLEGE PA
700 PM EDT WED AUG 27 2014

Note: "fair" indicates few or no clouds below 12,000 feet with no
significant weather and/or obstructions to visibility.

* = STATION THAT DOES NOT REPORT PRECIPITATION /E.G. RAIN...SNOW...ETC/
    THUNDER OR FOG.

PAZ002>004-007>009-013>016-020>023-029>032-280000-
WESTERN PENNSYLVANIA

CITY           SKY/WX    TMP DP  RH WIND       PRES   REMARKS
ERIE           MOSUNNY   74  57  55 W8        30.05F
MEADVILLE      MOSUNNY   69  59  70 NW5       30.06F
FRANKLIN*      MOSUNNY   72  61  68 NW6       30.06F
NEW CASTLE     FAIR      75  66  73 N9        30.04F
BEAVER COUNTY  PTSUNNY   75  66  73 N9        30.03R
BUTLER*        PTSUNNY   75  66  73 NW6       30.04R
PITTSBURGH INT MOSUNNY   81  68  64 NW12      30.00F
PITTSBURGH     MOSUNNY   79  70  74 N5        30.00S
INDIANA*       PTCLDY    81  70  69 NW6       30.04S
LATROBE        LGT RAIN  70  70 100 SE14      30.02R
WASHINGTON CO* PTSUNNY   79  72  78 NW3       30.01F
$$

PAZ004>006-010>012-017>019-024>028-033>037-041-042-045-046-049>053-280000-
CENTRAL PENNSYLVANIA

CITY           SKY/WX    TMP DP  RH WIND       PRES   REMARKS
BRADFORD       PTCLDY    71  60  68 N9        30.06S
DUBOIS         PTCLDY    75  66  73 NW10      30.02S
CLEARFIELD     PTCLDY    80  65  59 NW9       29.99F
JOHNSTOWN      RAIN      70  64  81 NW6       30.05S
ALTOONA        PTCLDY    80  68  66 NW6       30.00S
STATE COLLEGE  PTCLDY    82  66  57 W7        29.96F
WILLIAMSPORT   PTCLDY    82  71  69 SE7       29.89F
SELINSGROVE    LGT RAIN  80  71  74 VRB3      29.91S
FT INDIANTOWN  PTCLDY    85  73  67 W5        29.91F
CAPITAL CITY   CLEAR     84  70  62 SW7       29.91F
HARRISBURG     PTCLDY    84  72  67 SW7       29.90F
YORK           CLEAR     82  70  66 SW3       29.92F
$$

PAZ038>040-043-044-047-048-054-055-060>062-067>071-280000-
EASTERN PENNSYLVANIA

CITY           SKY/WX    TMP DP  RH WIND       PRES   REMARKS
SCRANTON       LGT RAIN  76  72  87 SE3       29.93F FOG
MOUNT POCONO   PTCLDY    78  67  68 NW3       29.97F
ALLENTOWN      CLEAR     83  68  60 SW7       29.89F
QUAKERTOWN*    CLEAR     84  68  58 MISG      29.91F
READING        CLEAR     86  68  54 W6        29.89F
LANCASTER      CLEAR     84  67  56 W8        29.90F
COATESVILLE    CLEAR     81  68  65 SW3       29.93F
POTTSTOWN      CLEAR     85  67  54 S5        29.91F
BLUE BELL      CLEAR     86  68  54 W5        29.89F
DOYLESTOWN     CLEAR     85  66  53 VRB3      29.89F
WILLOW GROVE   NOT AVBL
NORTH PHILA    CLEAR     87  65  47 SW8       29.90F
PHILADELPHIA   PTCLDY    86  65  49 SW12      29.90F
$$


USA.gov is the U.S. government's official web portal to all federal, state and local government web resources and services.